EA3FHP Weather Reports


Display with metric or nautical units.
time (UTC)temp
F
wind
direction
speed
MPH
gust
MPH
rain 1hr
in
rain 24hr
in
rain mn
in
humidity
%
barometer
mb
20260507152003 69 173 1.0 5.0 0.00 0.00 0.00 60 1012.2
20260507151003 68 230 1.0 6.0 0.00 0.00 0.00 62 1012.1
20260507150004 70 225 1.0 4.0 0.00 0.00 0.00 58 1012.3
20260507145003 69 194 2.0 7.0 0.00 0.00 0.00 61 1012.2
20260507144003 69 191 2.0 8.0 0.00 0.00 0.00 61 1012.3
20260507143003 68 190 2.0 8.0 0.00 0.00 0.00 55 1012.5
20260507142003 67 167 2.0 7.0 0.00 0.00 0.00 59 1012.4
20260507141003 67 167 2.0 11.0 0.00 0.00 0.00 62 1012.4
20260507140004 67 169 2.0 8.0 0.00 0.00 0.00 60 1012.5
20260506215003 53 225 0.0 2.0 0.00 0.01 0.01 83 1015.0
20260506214003 53 0 0.0 0.0 0.00 0.01 0.01 82 1015.1
20260506213004 53 0 0.0 0.0 0.00 0.01 0.01 82 1015.1
20260506212004 53 0 0.0 0.0 0.00 0.01 0.01 81 1014.9
20260506211003 54 225 0.0 2.0 0.00 0.01 0.01 81 1014.8
20260506210003 54 228 0.0 3.0 0.00 0.01 0.01 80 1014.9
20260506205003 54 135 0.0 3.0 0.00 0.01 0.01 80 1014.8
20260506204004 54 135 0.0 3.0 0.00 0.01 0.01 80 1014.6
20260506203003 54 147 0.0 5.0 0.00 0.01 0.01 80 1014.5
20260506202003 55 180 0.0 2.0 0.00 0.01 0.01 80 1014.4
20260506201003 55 180 0.0 2.0 0.00 0.01 0.01 79 1014.2
20260506200004 55 270 0.0 2.0 0.00 0.01 0.01 79 1014.0
20260506195003 55 0 0.0 0.0 0.00 0.01 0.01 80 1013.9
20260506194003 55 0 0.0 0.0 0.00 0.01 0.01 80 1013.7
20260506193003 56 0 0.0 0.0 0.00 0.01 0.01 80 1013.3
20260506192003 57 360 0.0 2.0 0.00 0.01 0.01 79 1013.3
20260506191003 58 350 1.0 4.0 0.00 0.02 0.01 76 1013.1
20260506190004 58 348 1.0 4.0 0.00 0.02 0.01 69 1013.0
20260506185003 58 123 1.0 4.0 0.00 0.02 0.01 70 1012.9
20260506184003 59 168 0.0 4.0 0.00 0.02 0.01 69 1012.5
20260506183003 59 180 0.0 2.0 0.00 0.05 0.01 68 1012.4
20260506182003 60 180 0.0 2.0 0.00 0.05 0.01 66 1012.1
20260506181003 60 171 1.0 6.0 0.00 0.05 0.01 64 1011.9
20260506180004 60 183 2.0 10.0 0.00 0.05 0.01 63 1011.9
20260506175003 61 195 2.0 6.0 0.00 0.05 0.01 62 1011.8
20260506174003 61 197 2.0 8.0 0.00 0.05 0.01 61 1011.6
20260506173003 62 205 2.0 7.0 0.00 0.05 0.01 60 1011.5
20260506172003 63 180 4.0 11.0 0.00 0.06 0.01 60 1011.4
20260506171003 64 186 3.0 11.0 0.00 0.06 0.01 57 1011.5
20260506170003 64 189 4.0 10.0 0.00 0.06 0.01 57 1011.3
20260506165003 64 202 2.0 7.0 0.00 0.07 0.01 55 1011.5
20260506164003 63 205 4.0 10.0 0.00 0.07 0.01 57 1011.3
20260506163003 64 199 4.0 15.0 0.00 0.07 0.01 57 1011.2
20260506162003 66 212 3.0 12.0 0.00 0.07 0.01 54 1011.0
20260506161003 67 211 2.0 5.0 0.00 0.08 0.01 53 1011.2
20260506160003 66 190 4.0 12.0 0.00 0.08 0.01 54 1010.9
20260506155003 66 202 3.0 14.0 0.00 0.09 0.01 54 1011.3
20260506154003 66 180 3.0 11.0 0.00 0.09 0.01 52 1011.1
20260506153003 67 193 3.0 9.0 0.00 0.09 0.01 52 1011.1